EST,Max TemperatureF,Mean TemperatureF,Min TemperatureF,Max Dew PointF,MeanDew PointF,Min DewpointF,Max Humidity, Mean Humidity, Min Humidity, Max Sea Level PressureIn, Mean Sea Level PressureIn, Min Sea Level PressureIn, Max VisibilityMiles, Mean VisibilityMiles, Min VisibilityMiles, Max Wind SpeedMPH, Mean Wind SpeedMPH, Max Gust SpeedMPH,PrecipitationIn, CloudCover, Events, WindDirDegrees
2013-1-1,33,28,23,30,27,18,93,86,80,30.22,30.13,30.07,,,,12,5,17,0.00,7,,340
2013-1-2,28,22,15,18,12,9,86,67,47,30.30,30.24,30.19,10,10,10,40,5,91,0.02,0,,332
2013-1-3,35,25,15,25,19,10,86,77,60,30.41,30.32,30.25,10,10,6,10,3,,0.00,1,,244
2013-1-4,35,30,24,25,22,19,86,75,60,30.46,30.40,30.36,10,9,4,13,6,,0.00,2,,235
2013-1-5,39,31,23,30,25,19,93,78,65,30.38,30.31,30.20,10,9,6,12,6,,0.00,4,,184
2013-1-6,37,30,24,32,26,19,87,75,64,30.42,30.22,30.11,10,10,6,17,10,22,0.00,7,,253
2013-1-7,41,30,19,27,22,16,93,77,57,30.49,30.38,30.24,10,8,2,12,3,,0.00,0,,153
2013-1-8,50,38,26,34,28,21,80,69,54,30.32,30.25,30.21,10,10,8,13,5,,0.00,1,,157
2013-1-9,53,46,42,45,39,34,93,78,66,30.42,30.32,30.23,10,8,4,9,6,,0.01,7,,218
2013-1-10,55,52,50,54,50,46,94,88,82,30.19,30.08,30.00,10,9,7,16,12,17,0.01,8,,119
2013-1-11,60,56,53,57,51,45,94,82,68,29.98,29.94,29.89,10,10,4,21,12,30,0.78,4,Thunderstorm,187
2013-1-12,66,60,53,63,57,48,94,88,77,30.01,29.91,29.71,10,10,5,23,10,32,0.24,6,,173
2013-1-13,66,46,26,61,35,19,100,87,74,30.27,29.99,29.72,10,8,1,28,13,31,1.85,8,Thunderstorm,320
2013-1-14,26,22,19,19,18,14,86,78,69,30.47,30.38,30.29,10,10,5,14,9,20,0.00,4,,349
2013-1-15,32,26,21,23,21,18,86,74,60,30.37,30.23,30.10,10,9,5,13,9,23,0.00,2,,31
2013-1-16,33,30,28,25,24,21,86,76,60,30.15,30.10,30.04,10,10,8,12,5,,0.00,4,,273
2013-1-17,44,36,28,34,27,21,93,75,57,30.45,30.24,30.13,10,9,5,22,6,28,0.00,1,,339
2013-1-18,42,30,19,27,22,16,86,71,56,30.56,30.45,30.27,10,10,10,16,6,23,0.00,0,,193
2013-1-19,55,45,35,34,29,25,70,54,38,30.26,30.14,29.99,10,10,10,25,16,34,0.00,0,,199
2013-1-20,44,35,26,34,19,12,81,55,38,30.31,30.22,30.06,10,10,10,16,10,22,0.00,0,,319
2013-1-21,28,22,15,18,9,0,74,56,40,30.34,30.26,30.20,10,10,10,22,11,29,0.00,3,,299
2013-1-22,21,16,10,7,1,-2,68,51,39,30.46,30.40,30.33,10,10,10,15,9,20,0.00,2,,304
2013-1-23,37,24,12,18,10,3,79,57,41,30.40,30.31,30.14,10,10,10,13,4,16,0.00,2,,175
2013-1-24,28,26,23,3,1,0,43,35,29,30.51,30.45,30.37,10,10,10,12,9,,0.00,0,,82
2013-1-25,33,27,21,21,15,3,86,63,40,30.35,30.18,30.11,10,10,3,14,8,17,0.00,5,,167
2013-1-26,37,29,21,19,18,16,93,67,48,30.40,30.32,30.20,10,10,8,9,5,,0.00,0,,340
2013-1-27,44,34,24,41,25,16,93,74,61,30.40,30.29,30.12,10,9,4,14,7,17,0.02,3,,124
2013-1-28,55,50,44,52,46,39,94,85,71,30.14,30.09,30.05,10,7,3,21,13,30,0.27,7,,183
2013-1-29,66,60,53,59,54,48,88,82,73,30.05,29.86,29.50,10,10,8,28,14,39,0.00,5,,174
2013-1-30,66,50,30,61,41,19,94,79,64,29.81,29.52,29.36,10,10,5,30,17,41,0.96,7,Thunderstorm,245
2013-1-31,35,25,17,27,18,9,86,64,55,30.22,29.98,29.82,10,10,2,30,21,37,0.00,7,,270